Date,TemperatureHighF,TemperatureAvgF,TemperatureLowF,DewpointHighF,DewpointAvgF,DewpointLowF,HumidityHigh,HumidityAvg,HumidityLow,PressureMaxIn,PressureMinIn,WindSpeedMaxMPH,WindSpeedAvgMPH,GustSpeedMaxMPH,PrecipitationSumIn
2013-1-1,27,19,7,21,14,3,90,80,63,30.25,30.11,7,2,12,0.01
2013-1-2,22,12,2,16,8,-1,88,82,69,30.29,30.19,7,2,11,0.00
2013-1-3,32,23,15,28,20,11,91,85,76,30.33,30.18,6,2,11,0.01
2013-1-4,30,19,9,25,16,6,90,87,82,30.32,30.25,7,3,15,0.01
2013-1-5,34,26,15,32,24,13,95,90,83,30.30,30.02,12,4,19,0.00
2013-1-6,34,26,13,32,23,10,93,87,79,30.38,29.98,9,4,14,0.01
2013-1-7,35,23,10,29,20,8,93,88,75,30.40,30.17,9,4,17,0.01
2013-1-8,41,31,23,35,28,21,92,87,78,30.22,30.11,8,4,13,0.00
2013-1-9,50,37,26,38,31,23,93,79,46,30.52,30.10,10,3,15,0.00
2013-1-10,40,34,25,38,29,22,96,85,70,30.52,29.99,15,6,22,0.25
2013-1-11,54,50,46,52,48,45,98,93,88,29.88,29.71,11,6,19,0.40
2013-1-12,52,44,31,49,41,29,95,89,78,29.97,29.77,10,4,17,0.10
2013-1-13,32,24,15,30,22,10,95,91,84,30.29,29.87,0,0,8,0.11
2013-1-14,24,17,13,19,13,10,88,84,76,30.50,30.29,4,0,8,0.00
2013-1-15,29,20,12,23,17,9,92,85,71,30.47,30.15,4,1,8,0.00
2013-1-16,36,26,14,29,22,12,93,85,71,30.15,29.92,10,3,19,0.01
2013-1-17,33,27,16,30,21,13,92,79,58,30.44,30.08,12,3,19,0.01
2013-1-18,40,29,16,31,23,13,90,81,67,30.47,30.02,15,7,24,0.01
2013-1-19,49,39,34,40,33,20,89,79,65,30.03,29.80,13,8,23,0.01
2013-1-20,32,20,15,21,11,7,76,67,57,30.32,29.97,13,4,23,0.00
2013-1-21,16,11,4,11,2,-4,85,68,48,30.35,30.20,9,4,18,0.00
2013-1-22,14,8,0,3,0,-4,85,70,51,30.47,30.34,5,2,12,0.00
2013-1-23,24,17,12,14,8,3,78,67,58,30.41,30.16,10,2,17,0.00
2013-1-24,23,16,7,10,4,-1,72,60,42,30.66,30.33,9,5,16,0.00
2013-1-25,34,24,19,22,16,9,88,74,60,30.41,30.02,7,3,14,0.00
2013-1-26,31,21,11,20,12,7,86,70,43,30.43,30.18,6,2,10,0.00
2013-1-27,38,30,24,37,25,18,96,82,68,30.42,29.97,10,5,17,0.10
2013-1-28,50,46,37,49,45,36,97,97,96,29.98,29.88,11,4,18,0.11